Weather History for El Dorado, AR

Change the Weather History Date:

Tuesday, April 23, 2013

  Actual Average Record
Temperature  
Mean Temperature 65 °F 65 °F  
Max Temperature 78 °F 77 °F 91 °F (1965)
Min Temperature 51 °F 53 °F 37 °F (1959)
Degree Days  
Heating Degree Days 0 3  
Month to date heating degree days 148 104  
Since 1 July heating degree days 2621 2640  
Cooling Degree Days 0 3  
Month to date cooling degree days 55 48  
Year to date cooling degree days 67 76  
Growing Degree Days 15 (Base 50)    
Moisture  
Dew Point 58 °F    
Average Humidity 75    
Maximum Humidity 93    
Minimum Humidity 56    
Precipitation  
Precipitation 0.02 in 0.14 in 1.80 in (1985)
Month to date precipitation 4.21 3.10  
Year to date precipitation 13.93 16.94  
Snow  
Snow 0.00 in - - ()
Month to date snowfall 0.0  
Since 1 July snowfall 0.1  
Snow Depth 0.00 in    
Sea Level Pressure  
Sea Level Pressure 29.97 in    
Wind  
Wind Speed 6 mph (South)    
Max Wind Speed 20 mph    
Max Gust Speed 28 mph    
Visibility 10 miles    
Events      
T = Trace of Precipitation, MM = Missing Value Source: NWS Daily Summary

Daily Weather History Graph

Daily Weather History Graph

Search for Another Location

Airport:

Trip Planner

Search our weather history database for the weather conditions in past years. The results will help you decide how hot, cold, wet, or windy it might be!

Date:

Astronomy

Apr. 23, 2013 Rise Set
Actual Time 6:31 AM CDT 7:47 PM CDT
Civil Twilight 6:05 AM CDT 8:13 PM CDT
Nautical Twilight 5:34 AM CDT 8:44 PM CDT
Astronomical Twilight 5:02 AM CDT 9:17 PM CDT
Moon 5:48 PM CDT (4/23) 4:52 AM CDT (4/23)
Length of Visible Light 14h 08m
Length of Day
13h 16m
Waxing Gibbous, 94% of the Moon is Illuminated
Apr 23
Waxing Gibbous
Apr 25
Full
May 2
Last Quarter
May 9
New
May 17
First Quarter

Hourly Weather History & Observations

Time (CDT) Temp. Dew Point Humidity Pressure Visibility Wind Dir Wind Speed Gust Speed Precip Events Conditions
12:53 AM 57.9 °F 48.0 °F 70% 29.98 in 10.0 mi Calm Calm - N/A   Clear
1:53 AM 53.1 °F 48.9 °F 86% 29.97 in 10.0 mi Calm Calm - N/A   Clear
2:53 AM 53.1 °F 48.0 °F 83% 29.96 in 10.0 mi South 4.6 mph - N/A   Clear
3:53 AM 55.0 °F 48.9 °F 80% 29.95 in 10.0 mi SSE 4.6 mph - N/A   Clear
4:53 AM 55.4 °F 50.0 °F 82% 29.96 in 10.0 mi SSE 4.6 mph - N/A   Scattered Clouds
5:24 AM 57.2 °F 51.8 °F 82% 29.97 in 10.0 mi Calm Calm - N/A   Mostly Cloudy
5:53 AM 55.0 °F 52.0 °F 89% 29.98 in 10.0 mi Calm Calm - N/A   Mostly Cloudy
6:35 AM 57.2 °F 53.6 °F 88% 29.98 in 10.0 mi SE 3.5 mph - N/A   Overcast
6:53 AM 57.9 °F 53.1 °F 84% 29.97 in 10.0 mi ESE 5.8 mph - N/A   Overcast
7:11 AM 57.2 °F 53.6 °F 88% 29.99 in 10.0 mi SE 3.5 mph - N/A   Scattered Clouds
7:21 AM 57.2 °F 53.6 °F 88% 29.99 in 10.0 mi ESE 3.5 mph - N/A   Mostly Cloudy
7:53 AM 60.1 °F 55.9 °F 86% 30.01 in 10.0 mi SE 4.6 mph - N/A   Overcast
8:08 AM 60.8 °F 55.4 °F 82% 30.01 in 10.0 mi SE 6.9 mph - N/A   Overcast
8:53 AM 61.0 °F 57.9 °F 90% 30.03 in 9.0 mi South 5.8 mph - N/A   Overcast
9:53 AM 64.0 °F 60.1 °F 87% 30.03 in 8.0 mi South 8.1 mph - N/A   Overcast
10:08 AM 64.4 °F 60.8 °F 88% 30.03 in 8.0 mi South 6.9 mph - N/A   Overcast
10:39 AM 66.2 °F 62.6 °F 88% 30.03 in 9.0 mi SSW 6.9 mph - N/A   Overcast
10:53 AM 66.9 °F 62.1 °F 84% 30.02 in 10.0 mi SSW 9.2 mph - N/A   Overcast
11:43 AM 69.8 °F 62.6 °F 78% 30.02 in 10.0 mi South 13.8 mph 20.7 mph N/A   Overcast
11:53 AM 71.1 °F 62.1 °F 73% 30.01 in 10.0 mi SSW 13.8 mph 21.9 mph N/A   Mostly Cloudy
12:53 PM 73.9 °F 61.0 °F 64% 29.99 in 10.0 mi SSW 15.0 mph - N/A   Scattered Clouds
1:53 PM 75.9 °F 61.0 °F 60% 29.97 in 10.0 mi SSW 11.5 mph 24.2 mph N/A   Mostly Cloudy
2:53 PM 77.0 °F 61.0 °F 58% 29.95 in 10.0 mi SSW 11.5 mph 24.2 mph N/A   Scattered Clouds
3:53 PM 77.0 °F 60.1 °F 56% 29.93 in 10.0 mi SW 10.4 mph - N/A   Mostly Cloudy
4:53 PM 77.0 °F 61.0 °F 58% 29.91 in 10.0 mi WSW 9.2 mph - N/A   Overcast
5:53 PM 75.9 °F 62.1 °F 62% 29.90 in 10.0 mi SW 6.9 mph - N/A   Mostly Cloudy
6:53 PM 75.0 °F 62.1 °F 64% 29.90 in 10.0 mi SW 4.6 mph - N/A   Overcast
7:53 PM 70.0 °F 64.9 °F 84% 29.91 in 10.0 mi Calm Calm - N/A   Overcast
8:53 PM 68.0 °F 64.0 °F 87% 29.93 in 10.0 mi Calm Calm - N/A   Overcast
9:53 PM 66.0 °F 64.0 °F 93% 29.94 in 10.0 mi Calm Calm - N/A   Mostly Cloudy
10:53 PM 66.9 °F 64.9 °F 93% 29.94 in 10.0 mi Calm Calm - N/A   Overcast
11:53 PM 62.1 °F 61.0 °F 96% 29.97 in 10.0 mi West 6.9 mph - 0.02 in   Overcast